Regional Weather Roundup
Issued by NWS Bismarck, ND

Home | Current Version | Previous Version | Text Only | Print | Product List | Glossary On
Versions: 1 2 3 4 5 6 7 8 9 10 11 12 13 14 15 16 17 18 19 20 21 22 23 24 25 26 27 28 29 30 31 32 33 34 35 36 37 38 39 40 41 42 43 44 45 46 47 48 49 50
000
ASUS43 KBIS 301910
RWRBIS

NWR BROADCAST TEXT
NATIONAL WEATHER SERVICE BISMARCK ND
200 PM CDT TUE JUN 30 2015

NOTE: "FAIR" INDICATES FEW OR NO CLOUDS BELOW 12,000 FEET WITH NO
SIGNIFICANT WEATHER AND/OR OBSTRUCTIONS TO VISIBILITY.


CITY           SKY/WX    TMP DP  RH WIND       PRES   REMARKS
WILLISTON      CLOUDY    76  62  62 NE14      29.91S HAZE
MINOT          CLOUDY    72  63  73 VRB3      29.90F HAZE
MINOT AFB      CLOUDY    72  71  95 N3        29.90F
BISMARCK       CLOUDY    73  65  75 S3        29.92F
DICKINSON      CLOUDY    74  64  71 SE14G20   29.91F
GARRISON         N/A     72  65  78 CALM      29.91S
HETTINGER ARPT CLOUDY    71  63  75 SE12      29.93F
JAMESTOWN      CLOUDY    70  61  73 SE8       29.93F
BEACH          FAIR      77  66  69 SE16G22   29.90F
CROSBY         MOCLDY    63  63 100 E6        29.93F FOG
HARVEY         FAIR      70  63  78 S7        29.92F
HAZEN          MOCLDY    73  63  68 S7        29.91F
LINTON         FAIR      70  68  94 SE10      29.93S
MANDAN         FAIR      72  66  83 SE5       29.93F
OAKES            N/A     70  66  88 E8        29.93F
STANLEY        MOCLDY    68  68 100 N12       29.97R FOG
$$

CITY           SKY/WX    TMP DP  RH WIND       PRES   REMARKS
GRAND FORKS    CLOUDY    74  57  55 CALM      29.93F
GRAND FORKS AF CLOUDY    74  59  59 S7        29.94F
DEVILS LAKE    CLOUDY    68  57  68 SE8       29.93S
FARGO          PTSUNNY   74  56  53 SE5       29.93F
CANDO          FAIR      68  64  88 SE7       29.94R
CAVALIER       FAIR      73  61  64 E5        29.94S
GRAFTON        FAIR      73  59  60 SE6       29.95S
LANGDON        FAIR      72  63  73 SE7       29.95F
ROLLA          FAIR      66  63  88 E7        29.95F
WALHALLA       FAIR      72  66  83 MISG      29.95S
$$

CITY           SKY/WX    TMP DP  RH WIND       PRES   REMARKS
ABERDEEN       CLOUDY    73  66  78 N3        29.92F
MOBRIDGE       LGT RAIN  72  69  90 E13       29.89F
BUFFALO          N/A     80  66  62 E12       29.86S
RAPID CITY     CLOUDY    82  66  58 SW7       29.91F
SIDNEY         MOSUNNY   86  63  45 SE13      29.86F
WOLF POINT     MOSUNNY   88  62  41 E18G25    29.83F HAZE
GLENDIVE       SUNNY     84  63  48 CALM      29.87S
MILES CITY     CLOUDY    92  58  31 NW15G23   29.87F HX  91
BAKER          PTSUNNY   78  65  63 MISG      29.91F
$$

CITY           SKY/WX    TMP DP  RH WIND       PRES   REMARKS
BILLINGS       MOSUNNY   94  44  17 NW17G26   29.98F HX  90
GREAT FALLS    MOSUNNY   89  44  20 NW17G28   29.99R
REGINA         PTSUNNY   66  59  77 NE7       29.94S SMOKE
ESTEVAN        LGT RAIN  64  61  88 CALM      29.93F SMOKE
$$



USA.gov is the U.S. government's official web portal to all federal, state and local government web resources and services.